Clermont County, Batavia, OH

1:47 AM EST on November 20, 2017 (GMT -0500)
Clermont County, Batavia

Weather History for KI69 - January, 2014

Change the Weather History Date:

Sunday, January 26, 2014

  Actual Average (KLUK) Record (KLUK)
Temperature  
Mean Temperature 29 °F -  
Max Temperature 44 °F 39 °F 74 °F (1950)
Min Temperature 14 °F 20 °F 1 °F (1978)
Degree Days  
Heating Degree Days 36    
Moisture  
Dew Point 15 °F    
Average Humidity 55    
Maximum Humidity 70    
Minimum Humidity 40    
Precipitation  
Precipitation 0.00 in - - ()
Sea Level Pressure  
Sea Level Pressure 29.69 in    
Wind  
Wind Speed 7 mph (SW)    
Max Wind Speed 21 mph    
Max Gust Speed 26 mph    
Visibility 10 miles    
Events Snow    
Averages and records for this station are not official NWS values.
T = Trace of Precipitation, MM = Missing Value Source: NWS Daily Summary

Daily Weather History Graph

Daily Weather History Graph

Search for Another Location

Airport or City:

Trip Planner

Search our weather history database for the weather conditions in past years. The results will help you decide how hot, cold, wet, or windy it might be!

Date:

Astronomy

Jan. 26, 2014 Rise Set
Actual Time 7:48 AM EST 5:50 PM EST
Civil Twilight 7:19 AM EST 6:19 PM EST
Nautical Twilight 6:47 AM EST 6:51 PM EST
Astronomical Twilight 6:15 AM EST 7:23 PM EST
Moon 3:24 AM EST (1/26) 1:39 PM EST (1/26)
Length of Visible Light 10h 59m
Length of Day
10h 02m
Waning Crescent, 24% of the Moon is Illuminated
Jan 26
Waning Crescent
Jan 30
New
Feb 6
First Quarter
Feb 14
Full
Feb 22
Last Quarter

Hourly Weather History & Observations

Time (EST) Temp. Windchill Dew Point Humidity Pressure Visibility Wind Dir Wind Speed Gust Speed Precip Events Conditions
12:14 AM 14.0 °F 2.0 °F 1.4 °F 57% 29.90 in 10.0 mi West 9.2 mph - N/A   Clear
12:34 AM 14.0 °F 2.0 °F 1.4 °F 57% 29.92 in 10.0 mi West 9.2 mph - N/A   Clear
12:54 AM 14.0 °F 3.9 °F 1.4 °F 57% 29.91 in 10.0 mi West 6.9 mph - N/A   Clear
1:14 AM 14.0 °F 2.9 °F 1.4 °F 57% 29.92 in 10.0 mi West 8.1 mph - N/A   Clear
1:34 AM 14.0 °F 3.9 °F 1.4 °F 57% 29.91 in 10.0 mi West 6.9 mph - N/A   Clear
1:54 AM 14.0 °F 2.9 °F 1.4 °F 57% 29.92 in 10.0 mi West 8.1 mph - N/A   Clear
2:14 AM 14.0 °F 3.9 °F 1.4 °F 57% 29.91 in 10.0 mi West 6.9 mph - N/A   Clear
2:34 AM 14.0 °F 6.5 °F 1.4 °F 57% 29.92 in 10.0 mi West 4.6 mph - N/A   Clear
2:54 AM 14.0 °F - 1.4 °F 57% 29.90 in 10.0 mi Calm Calm - N/A   Clear
3:14 AM 14.0 °F - 1.4 °F 57% 29.90 in 10.0 mi Calm Calm - N/A   Clear
3:34 AM 14.0 °F - 1.4 °F 57% 29.90 in 10.0 mi Calm Calm - N/A   Scattered Clouds
3:54 AM 14.0 °F 8.2 °F 1.4 °F 57% 29.90 in 10.0 mi SW 3.5 mph - N/A   Mostly Cloudy
4:14 AM 14.0 °F 6.5 °F 1.4 °F 57% 29.88 in 10.0 mi South 4.6 mph - N/A   Mostly Cloudy
4:34 AM 14.0 °F 8.2 °F 1.4 °F 57% 29.86 in 10.0 mi South 3.5 mph - N/A   Overcast
4:54 AM 14.0 °F 8.2 °F 1.4 °F 57% 29.86 in 10.0 mi SSW 3.5 mph - N/A   Overcast
5:14 AM 14.0 °F 5.1 °F 1.4 °F 57% 29.84 in 10.0 mi South 5.8 mph - N/A   Overcast
5:34 AM 14.0 °F 5.1 °F 1.4 °F 57% 29.81 in 10.0 mi South 5.8 mph - N/A   Overcast
5:54 AM 14.0 °F 6.5 °F 1.4 °F 57% 29.81 in 10.0 mi South 4.6 mph - N/A   Scattered Clouds
6:14 AM 14.0 °F 3.9 °F 1.4 °F 57% 29.78 in 10.0 mi South 6.9 mph - N/A   Scattered Clouds
6:35 AM 15.8 °F 7.2 °F 3.2 °F 58% 29.77 in 10.0 mi South 5.8 mph - N/A   Overcast
6:54 AM 15.8 °F 8.6 °F 3.2 °F 58% 29.77 in 10.0 mi South 4.6 mph - N/A   Overcast
7:14 AM 17.6 °F 9.3 °F 3.2 °F 53% 29.77 in 10.0 mi South 5.8 mph - N/A   Overcast
7:34 AM 17.6 °F 9.3 °F 3.2 °F 53% 29.75 in 10.0 mi South 5.8 mph - N/A   Overcast
7:54 AM 17.6 °F 8.2 °F 3.2 °F 53% 29.72 in 10.0 mi South 6.9 mph - N/A   Overcast
8:14 AM 17.6 °F 8.2 °F 5.0 °F 58% 29.66 in 10.0 mi SSE 6.9 mph - N/A Snow Light Snow
8:35 AM 19.4 °F 10.4 °F 5.0 °F 54% 29.67 in 10.0 mi South 6.9 mph - N/A   Overcast
8:54 AM 19.4 °F 9.5 °F 5.0 °F 54% 29.68 in 10.0 mi South 8.1 mph - N/A   Overcast
9:14 AM 21.2 °F 12.6 °F 5.0 °F 50% 29.66 in 10.0 mi South 6.9 mph - N/A   Overcast
9:35 AM 21.2 °F 16.4 °F 6.8 °F 54% 29.66 in 10.0 mi South 3.5 mph - N/A   Overcast
9:54 AM 23.0 °F 18.4 °F 6.8 °F 50% 29.65 in 10.0 mi South 3.5 mph - N/A   Overcast
10:14 AM 24.8 °F 19.1 °F 6.8 °F 46% 29.66 in 10.0 mi SSW 4.6 mph - N/A   Overcast
10:35 AM 26.6 °F 20.0 °F 6.8 °F 43% 29.67 in 10.0 mi SW 5.8 mph - N/A   Overcast
10:54 AM 26.6 °F 20.0 °F 8.6 °F 47% 29.66 in 10.0 mi SW 5.8 mph - N/A Snow Light Snow
11:14 AM 28.4 °F 21.2 °F 10.4 °F 47% 29.66 in 10.0 mi SW 6.9 mph - N/A   Overcast
11:34 AM 30.2 °F 21.9 °F 8.6 °F 40% 29.65 in 10.0 mi SW 9.2 mph - N/A   Overcast
11:54 AM 32.0 °F 23.6 °F 10.4 °F 41% 29.63 in 10.0 mi SW 10.4 mph 17.3 mph N/A   Overcast
12:15 PM 32.0 °F 24.8 °F 12.2 °F 44% 29.62 in 10.0 mi SW 8.1 mph 16.1 mph N/A   Overcast
12:34 PM 33.8 °F 28.6 °F 14.0 °F 44% 29.60 in 10.0 mi SW 5.8 mph 17.3 mph N/A   Overcast
12:54 PM 35.6 °F 26.6 °F 17.6 °F 48% 29.59 in 10.0 mi WSW 13.8 mph 18.4 mph N/A   Overcast
1:15 PM 37.4 °F 28.2 °F 19.4 °F 48% 29.59 in 10.0 mi WSW 16.1 mph 25.3 mph N/A   Overcast
1:34 PM 39.2 °F 29.8 °F 19.4 °F 45% 29.58 in 10.0 mi WSW 18.4 mph 26.5 mph N/A   Overcast
1:54 PM 39.2 °F 30.2 °F 21.2 °F 49% 29.59 in 10.0 mi WSW 17.3 mph 24.2 mph N/A   Overcast
2:15 PM 41.0 °F 33.1 °F 21.2 °F 45% 29.58 in 10.0 mi WSW 15.0 mph 20.7 mph N/A   Overcast
2:34 PM 41.0 °F 32.8 °F 23.0 °F 49% 29.59 in 10.0 mi WSW 16.1 mph - N/A   Overcast
2:54 PM 42.8 °F 35.4 °F 23.0 °F 46% 29.58 in 10.0 mi WSW 15.0 mph 19.6 mph N/A   Overcast
3:15 PM 42.8 °F 34.0 °F 24.8 °F 49% 29.57 in 10.0 mi WSW 20.7 mph 25.3 mph N/A   Overcast
3:34 PM 42.8 °F 36.2 °F 26.6 °F 53% 29.57 in 10.0 mi WSW 12.7 mph 17.3 mph N/A   Overcast
3:54 PM 44.6 °F 37.4 °F 26.6 °F 49% 29.57 in 10.0 mi WSW 16.1 mph 25.3 mph N/A   Mostly Cloudy
4:15 PM 44.6 °F 37.8 °F 26.6 °F 49% 29.58 in 10.0 mi WSW 15.0 mph 21.9 mph N/A   Scattered Clouds
4:34 PM 44.6 °F 38.8 °F 28.4 °F 53% 29.58 in 10.0 mi WSW 11.5 mph 16.1 mph N/A   Clear
4:54 PM 44.6 °F 37.8 °F 28.4 °F 53% 29.58 in 10.0 mi WSW 15.0 mph 21.9 mph N/A   Scattered Clouds
5:15 PM 44.6 °F 38.8 °F 28.4 °F 53% 29.59 in 10.0 mi WSW 11.5 mph 21.9 mph N/A   Clear
5:34 PM 44.6 °F 38.8 °F 28.4 °F 53% 29.60 in 10.0 mi West 11.5 mph - N/A   Scattered Clouds
5:54 PM 44.6 °F 39.7 °F 28.4 °F 53% 29.60 in 10.0 mi West 9.2 mph - N/A   Scattered Clouds
6:14 PM 42.8 °F 41.1 °F 28.4 °F 57% 29.60 in 10.0 mi SW 3.5 mph - N/A   Scattered Clouds
6:34 PM 42.8 °F 41.1 °F 28.4 °F 57% 29.61 in 10.0 mi WSW 3.5 mph - N/A   Mostly Cloudy
6:54 PM 41.0 °F 39.0 °F 28.4 °F 61% 29.61 in 10.0 mi WSW 3.5 mph - N/A   Overcast
7:14 PM 42.8 °F 41.1 °F 28.4 °F 57% 29.61 in 10.0 mi SW 3.5 mph - N/A   Scattered Clouds
7:34 PM 41.0 °F 39.0 °F 28.4 °F 61% 29.62 in 10.0 mi SW 3.5 mph - N/A   Clear
7:54 PM 41.0 °F 39.0 °F 28.4 °F 61% 29.62 in 10.0 mi WSW 3.5 mph - N/A   Clear
8:14 PM 37.4 °F 34.9 °F 28.4 °F 70% 29.60 in 10.0 mi South 3.5 mph - N/A   Scattered Clouds
8:34 PM 37.4 °F - 28.4 °F 70% 29.60 in 10.0 mi Calm Calm - N/A   Mostly Cloudy
8:54 PM 39.2 °F 37.0 °F 28.4 °F 65% 29.60 in 10.0 mi SSW 3.5 mph - N/A   Overcast
9:14 PM 39.2 °F 35.9 °F 30.2 °F 70% 29.59 in 10.0 mi SSW 4.6 mph - N/A   Overcast
9:34 PM 41.0 °F 38.0 °F 30.2 °F 65% 29.60 in 10.0 mi SSW 4.6 mph - N/A   Mostly Cloudy
9:54 PM 42.8 °F 40.1 °F 30.2 °F 61% 29.60 in 10.0 mi SW 4.6 mph - N/A   Scattered Clouds
10:14 PM 42.8 °F 38.6 °F 30.2 °F 61% 29.59 in 10.0 mi SSW 6.9 mph - N/A   Mostly Cloudy
10:34 PM 42.8 °F 39.3 °F 30.2 °F 61% 29.59 in 10.0 mi SSW 5.8 mph - N/A   Overcast
10:54 PM 42.8 °F 38.0 °F 30.2 °F 61% 29.58 in 10.0 mi SSW 8.1 mph - N/A   Overcast
11:14 PM 42.8 °F 38.0 °F 30.2 °F 61% 29.58 in 10.0 mi SW 8.1 mph - N/A   Overcast
11:34 PM 42.8 °F 38.6 °F 32.0 °F 66% 29.58 in 10.0 mi SW 6.9 mph - N/A   Overcast
11:54 PM 42.8 °F 38.0 °F 32.0 °F 66% 29.58 in 10.0 mi SW 8.1 mph - N/A   Overcast